User: anonymous   Login
Location: Caltech
(34.1382°N, 118.1253°W)
Time: 18:57:21
(UTC-07:00)
Language:

SO-50 - Orbit

View from above orbital plane
View from above orbital plane
View from above satellite
View from above satellite

Ground track
Ground track

The orbit data is extracted from the following two-line orbital elements,

1 27607U 02058C   17290.48891283 +.00000068 +00000-0 +30365-4 0  9994
2 27607 064.5540 111.8165 0035908 037.7891 322.5722 14.75377125797021
Epoch (UTC): 17 October 2017 11:44:02
Eccentricity: 0.0035908
inclination: 64.5540°
perigee height: 619 km
apogee height: 669 km
right ascension of ascending node: 111.8165°
argument of perigee: 37.7891°
revolutions per day: 14.75377125
mean anomaly at epoch: 322.5722°
orbit number at epoch: 79702

The dashed part of the orbit path shows where the satellite is in the earth's shadow,  

DLR